TimeCDT,TemperatureF,Dew PointF,Humidity,Sea Level PressureIn,VisibilityMPH,Wind Direction,Wind SpeedMPH,Gust SpeedMPH,PrecipitationIn,Events,Conditions,WindDirDegrees,DateUTC
12:51 AM,75.9,73.0,91,29.97,10.0,South,3.5,-,N/A,,Clear,190,2013-10-04 05:51:00
1:51 AM,75.9,73.0,91,29.97,10.0,East,4.6,-,N/A,,Clear,80,2013-10-04 06:51:00
2:51 AM,77.0,72.0,84,29.97,10.0,East,6.9,-,N/A,,Clear,90,2013-10-04 07:51:00
3:51 AM,77.0,73.0,88,29.96,10.0,East,5.8,-,N/A,,Clear,100,2013-10-04 08:51:00
4:51 AM,78.1,73.9,87,29.98,10.0,East,6.9,-,N/A,,Clear,100,2013-10-04 09:51:00
5:51 AM,79.0,73.9,84,29.99,10.0,East,6.9,-,N/A,,Clear,90,2013-10-04 10:51:00
6:51 AM,79.0,73.9,84,30.00,10.0,East,6.9,-,N/A,,Clear,90,2013-10-04 11:51:00
7:51 AM,80.1,75.0,85,30.01,10.0,East,9.2,-,N/A,,Scattered Clouds,100,2013-10-04 12:51:00
8:51 AM,81.0,75.0,82,30.02,10.0,East,8.1,-,N/A,,Clear,90,2013-10-04 13:51:00
9:51 AM,82.9,75.0,77,30.03,10.0,East,9.2,-,N/A,,Scattered Clouds,100,2013-10-04 14:51:00
10:42 AM,82.4,77.0,84,30.03,10.0,ESE,11.5,-,0.01,,Mostly Cloudy,110,2013-10-04 15:42:00
10:51 AM,82.9,75.9,79,30.04,10.0,East,13.8,20.7,0.01,,Mostly Cloudy,100,2013-10-04 15:51:00
11:41 AM,75.2,71.6,89,30.05,1.8,SE,11.5,28.8,0.01,Rain,Heavy Rain,140,2013-10-04 16:41:00
11:51 AM,75.9,73.0,91,30.04,5.0,SE,5.8,-,0.05,Rain,Light Rain,130,2013-10-04 16:51:00
12:26 PM,75.2,71.6,89,30.04,10.0,South,20.7,29.9,0.00,Rain,Light Rain,170,2013-10-04 17:26:00
12:51 PM,75.9,73.0,91,30.04,4.0,SSE,18.4,24.2,0.00,Rain,Light Rain,160,2013-10-04 17:51:00
1:51 PM,79.0,73.0,82,30.01,10.0,SE,12.7,16.1,0.01,,Mostly Cloudy,140,2013-10-04 18:51:00
2:51 PM,82.0,71.1,69,29.99,10.0,SE,12.7,19.6,N/A,,Scattered Clouds,130,2013-10-04 19:51:00
3:51 PM,84.0,72.0,67,29.98,10.0,ESE,8.1,-,N/A,,Partly Cloudy,120,2013-10-04 20:51:00
4:51 PM,82.9,73.0,72,29.98,10.0,ESE,12.7,-,N/A,,Partly Cloudy,110,2013-10-04 21:51:00
5:51 PM,82.0,73.0,74,29.99,10.0,East,8.1,-,N/A,,Mostly Cloudy,100,2013-10-04 22:51:00
6:51 PM,80.1,73.9,81,30.00,10.0,East,4.6,-,N/A,,Clear,100,2013-10-04 23:51:00
7:51 PM,80.1,73.9,81,30.00,10.0,East,6.9,-,N/A,,Scattered Clouds,100,2013-10-05 00:51:00
8:51 PM,80.1,73.9,81,30.01,10.0,East,8.1,-,N/A,,Partly Cloudy,100,2013-10-05 01:51:00
9:51 PM,80.1,75.0,85,30.03,10.0,ESE,6.9,-,N/A,,Clear,110,2013-10-05 02:51:00
10:51 PM,80.1,75.0,85,30.02,10.0,East,8.1,-,N/A,,Clear,100,2013-10-05 03:51:00
11:51 PM,80.1,75.0,85,30.00,10.0,ESE,8.1,-,N/A,,Clear,110,2013-10-05 04:51:00